Location: Unspecified
(36.5600°N, 136.6600°E)
Time: 18:35:07
(UTC+09:00)

BlueWalker 3 - Pass Details

Date: 25 June 2024
Orbit: 480 x 491 km, 53.2° (Epoch: 19 July)

Event Time Altitude Azimuth Distance (km) Brightness Sun altitude
Rises 19:56:38 0° 276° (W) 2,539 6.7 -7.7°
Reaches altitude 10° 19:59:45 10° 304° (NW) 1,659 6.3 -8.2°
Maximum altitude 20:01:40 13° 335° (NNW) 1,457 5.3 -8.5°
Drops below altitude 10° 20:03:35 10° 6° (N) 1,659 5.0 -8.8°
Sets 20:06:42 0° 34° (NE) 2,539 5.6 -9.3°
